[[{"header":{"parameterUnit":"m.s-1","parameterCategory":1,"la1":30.2991,"la2":30.254,"lo1":-89.0895,"lo2":-89.0444,"dy":0.0017,"dx":0.0017,"nx":28,"ny":28,"refTime":"2024-06-17T03:00:00:Z","depth":0,"parameterNumber":2,"parameterNumberName":"U-component_of_WINDS"},"data":[0,0,0,0,0,0,0,0,0,0,0,0,0,0,0,0,0,0,0,0,0,0,0,0,0,0,0,0,0,0,0,0,0,0,0,0,0,0,0,0,0,0,0,0,0,0,0,0,0,0,0,0,0,0,0,0,0,0,-10.9271,-10.9271,0,-10.9314,-10.9314,-10.9314,-10.9088,-10.9081,-10.9075,-10.9069,-10.9109,-10.9116,-10.9123,0,0,0,0,0,0,0,0,0,0,0,0,0,-10.899,-10.8997,-10.9271,-10.9272,-10.9272,-10.9314,-10.9314,-10.9315,-10.9089,-10.9081,-10.9073,-10.9066,-10.9107,-10.9115,-10.9124,0,0,0,0,0,0,0,0,0,0,0,0,0,-10.9081,-10.8999,-10.9271,-10.9165,-10.9155,-10.9313,-10.9314,-10.9315,-10.9091,-10.9081,-10.9071,-10.9062,-10.9104,-10.9115,-10.9125,-10.9386,0,0,-10.9158,-10.9162,0,0,0,0,0,0,0,0,-10.9076,-10.9091,-10.918,-10.9172,-10.9162,-10.9185,-10.923,-10.9339,-10.9093,-10.9115,-10.9069,-10.9057,-10.9142,-10.9149,-10.9178,-10.9388,-10.939,-10.9159,-10.9165,-10.917,-10.9173,0,0,0,0,0,0,0,-10.907,-10.9088,-10.9287,-10.9181,-10.9171,-10.9113,-10.9116,-10.9249,-10.9183,-10.9113,-10.9096,-10.9105,-10.9136,-10.9169,-10.9178,-10.939,-10.9158,-10.9168,-10.9174,-10.9179,-10.9812,-10.9822,0,0,0,0,0,0,-10.9078,-10.9084,-10.9286,-10.9289,-10.9094,-10.9127,-10.9129,-10.9188,-10.9181,-10.917,-10.9113,-10.9094,-10.9155,-10.9166,-10.9178,-10.9479,-10.917,-10.918,-10.9186,-10.9802,-10.9815,-10.9826,0,0,0,0,0,0,-10.9073,-10.9098,-10.9284,-10.9182,-10.9202,-10.9142,-10.921,-10.9194,-10.9226,-10.9181,-10.9168,-10.9159,-10.9148,-10.9163,-10.9335,-10.9478,-10.9185,-10.9194,-10.979,-10.9806,-10.982,-11.0087,0,0,0,0,0,0,-10.9066,-10.9098,-10.9197,-10.9186,-10.9208,-10.9443,-10.9219,-10.9202,-10.9246,-10.9222,-10.9221,-10.9211,-10.9142,-10.9321,-10.9346,-10.9487,-10.9203,-10.9777,-10.9797,-10.9815,-11.0065,-11.011,-11.0148,0,0,0,0,0,-10.9057,-10.9271,-10.9203,-10.9229,-10.9331,-10.9451,-10.9463,-10.938,-10.9259,-10.9357,-10.9327,-10.9211,-10.946,-10.934,-10.9367,-10.9514,-10.9767,-10.9791,-10.9814,-11.0046,-11.0101,-11.0147,0,0,0,0,0,0,-10.9298,-10.9267,-10.9192,-10.9409,-10.9435,-10.9413,-10.9534,-10.9441,-10.95,-10.9475,-10.9368,-10.937,-10.9559,-10.9554,-10.9422,-10.9764,-10.9592,-10.9622,-10.976,-10.9811,-10.9852,-10.9846,-10.9211,0,0,0,0,0,-10.9378,-10.9479,-10.9446,-10.964,-10.9657,-10.9595,-10.9644,-10.9578,-10.9599,-10.9608,-10.9591,-10.9616,-10.9699,-10.9755,-10.983,-11.0065,-11.0059,-11.0179,-11.0221,-11.0255,-11.028,-11.0401,-11.0452,-10.9903,-10.9903,-10.9902,0,0,-10.954,-10.9536,-10.9606,-10.9689,-10.9701,-10.9806,-10.9605,-10.9726,-10.9802,-10.9626,-10.9786,-10.9776,-10.9796,-11.0001,-11.009,-11.0002,-11.0432,-11.0285,-11.0313,-11.0319,-11.043,-11.0482,-11.0528,-10.9919,-10.9916,-10.9914,0,0,-10.989,-10.9899,-11.006,-11.0077,-11.0098,-11.0055,-11.0095,-11.0088,-11.0073,-11.0234,-11.0103,-11.0193,-11.0339,-11.0358,-11.0387,-11.0746,-11.064,-11.0774,-11.0988,-11.1107,-11.115,-11.1187,-11.1311,-11.1357,-11.08,-11.0801,-11.0801,0,-11.0089,-11.0243,-11.0154,-11.0284,-11.0322,-11.0171,-11.0331,-11.0352,-11.0397,-11.0426,-11.0328,-11.0507,-11.0511,-11.0715,-11.0803,-11.0834,-11.0872,-11.077,-11.1151,-11.1188,-11.1222,-11.1338,-11.1385,-11.0817,-11.0815,-11.0813,-11.0812,0,-11.0485,-11.0595,-11.0722,-11.0769,-11.0823,-11.0968,-11.0899,-11.0965,-11.0895,-11.0862,-11.1026,-11.1026,-11.1095,-11.114,-11.1074,-11.1336,-11.128,-11.117,-11.0993,-11.1291,-11.1398,-11.1443,-11.0839,-11.0833,-11.0829,-11.0825,0,0,-11.0983,-11.0981,-11.1028,-11.1046,-11.106,-11.1142,-11.1281,-11.135,-11.1406,-11.1443,-11.1553,-11.1682,-11.1579,-11.1612,-11.1546,-11.1652,-11.193,-11.1526,-11.1525,-11.1597,-11.2214,-11.2293,-11.2346,-11.1863,-11.1871,-11.1878,-11.221,0,-11.132,-11.1555,-11.1479,-11.1716,-11.1814,-11.1673,-11.1792,-11.1813,-11.1788,-11.1866,-11.1837,-11.1927,-11.1788,-11.1806,-11.1904,-11.1876,-11.2052,-11.1852,-11.196,-11.1965,-11.1953,-11.2403,-11.2487,-11.2801,-11.2252,-11.226,-11.2265,0,-11.1744,-11.1798,-11.2045,-11.204,-11.2079,-11.2188,-11.2244,-11.2323,-11.2343,-11.2316,-11.2355,-11.2267,-11.24,-11.2229,-11.2409,-11.2274,-11.2315,-11.2308,-11.2318,-11.232,-11.2129,-11.2411,-11.2899,-11.2944,-11.2331,-11.2326,-11.2321,0,-11.2075,-11.2211,-11.2375,-11.2396,-11.2396,-11.2476,-11.2479,-11.249,-11.2536,-11.2587,-11.2615,-11.2681,-11.2715,-11.2768,-11.2699,-11.2582,-11.2888,-11.2712,-11.2866,-11.2868,-11.2931,-11.2927,-11.3426,-11.2969,-11.2968,-11.2968,-11.2967,0,-11.2456,-11.2612,-11.2523,-11.2624,-11.2793,-11.2706,-11.2875,-11.2863,-11.2874,-11.2968,-11.2853,-11.2943,-11.285,-11.2932,-11.288,-11.3034,-11.3053,-11.3032,-11.3015,-11.3039,-11.3041,-11.3059,-11.3034,-11.298,-11.2977,-11.2975,-11.2973,0,-11.2852,-11.28,-11.2969,-11.2956,-11.2957,-11.3082,-11.307,-11.3161,-11.3129,-11.3249,-11.3272,-11.3221,-11.3311,-11.325,-11.3341,-11.3305,-11.3506,-11.3462,-11.3499,-11.3485,-11.364,-11.3624,-11.4164,-11.4228,-11.3736,-11.3741,-11.3745,0,-11.3095,-11.3211,-11.3212,-11.3267,-11.3279,-11.337,-11.3416,-11.3336,-11.3389,-11.3421,-11.3509,-11.359,-11.3648,-11.38,-11.3769,-11.3837,-11.379,-11.3975,-11.3799,-11.3819,-11.3786,-11.3777,-11.3786,-11.4008,-11.4014,-11.4019,-11.4023,0,-11.3531,-11.35,-11.3572,-11.3637,-11.3696,-11.3743,-11.3779,-11.3831,-11.375,-11.3816,-11.3907,-11.3954,-11.4047,-11.4127,-11.4184,-11.4185,-11.409,-11.408,-11.4117,-11.4139,-11.4153,-11.4142,-11.3589,-11.4065,-11.4061,-11.4058,-11.4056,-11.4054,-11.3853,-11.3948,-11.3964,-11.4048,-11.4068,-11.4105,-11.4189,-11.4168,-11.4244,-11.4313,-11.4262,-11.4369,-11.4386,-11.4453,-11.4467,-11.4549,-11.4473,-11.453,-11.4543,-11.4556,-11.4575,-11.4147,-11.456,-11.4558,-11.4557,-11.4556,-11.4555,0,-11.4277,-11.4281,-11.436,-11.4415,-11.4482,-11.439,-11.4426,-11.4486,-11.4583,-11.4608,-11.4669,-11.4773,-11.4851,-11.4829,-11.4897,-11.4967,-11.4925,-11.4987,-11.4978,-11.4979,-11.4642,-11.4599,-11.502,-11.502,-11.502,-11.502,-11.502,-11.502,-11.4505,-11.466,-11.4632,-11.4795,-11.4797,-11.4902,-11.493,-11.4963,-11.4982,-11.5104,-11.5168,-11.5154,-11.5158,-11.5227,-11.5294,-11.5285,-11.5313,-11.539,-11.5365,-11.5049,-11.5003,-11.4959,-11.4918,-11.5399,-11.5399,-11.5694,-11.5697,-11.5699]},{"header":{"parameterUnit":"m.s-1","parameterCategory":1,"la1":30.2991,"la2":30.254,"lo1":-89.0895,"lo2":-89.0444,"dy":0.0017,"dx":0.0017,"nx":28,"ny":28,"refTime":"2024-06-17T03:00:00:Z","depth":0,"parameterNumber":3,"parameterNumberName":"V-component_of_WINDS"},"data":[0,0,0,0,0,0,0,0,0,0,0,0,0,0,0,0,0,0,0,0,0,0,0,0,0,0,0,0,0,0,0,0,0,0,0,0,0,0,0,0,0,0,0,0,0,0,0,0,0,0,0,0,0,0,0,0,0,0,1.2716,1.2717,0,1.2796,1.2797,1.2798,1.2798,1.2797,1.2796,1.2795,1.2877,1.288,1.2883,0,0,0,0,0,0,0,0,0,0,0,0,0,1.2565,1.2568,1.2716,1.2717,1.2718,1.2796,1.2797,1.2798,1.2798,1.2797,1.2795,1.2794,1.2876,1.288,1.2884,0,0,0,0,0,0,0,0,0,0,0,0,0,1.2636,1.2569,1.2716,1.2727,1.2729,1.2796,1.2797,1.2798,1.2798,1.2797,1.2795,1.2794,1.2875,1.2879,1.2884,1.2945,0,0,1.2899,1.2901,0,0,0,0,0,0,0,0,1.2632,1.2642,1.2724,1.2727,1.2729,1.2785,1.2774,1.2847,1.2799,1.2772,1.2795,1.2793,1.2848,1.2855,1.2873,1.2949,1.2952,1.2899,1.2902,1.2904,1.2905,0,0,0,0,0,0,0,1.2627,1.2638,1.2747,1.2726,1.2728,1.2729,1.2737,1.2788,1.2818,1.2774,1.2774,1.2784,1.2849,1.2869,1.2875,1.2953,1.2899,1.2903,1.2906,1.2908,1.3084,1.3086,0,0,0,0,0,0,1.262,1.2634,1.2745,1.275,1.2676,1.2733,1.2742,1.2769,1.2817,1.2823,1.2785,1.2783,1.2861,1.287,1.2878,1.2953,1.2904,1.2908,1.2911,1.3082,1.3085,1.3087,0,0,0,0,0,0,1.2617,1.263,1.2742,1.2692,1.2707,1.2737,1.2767,1.2771,1.2791,1.2825,1.2831,1.28,1.286,1.2871,1.2929,1.2956,1.2911,1.2915,1.308,1.3083,1.3086,1.3103,0,0,0,0,0,0,1.2612,1.2628,1.2651,1.2693,1.2709,1.279,1.2768,1.2774,1.2799,1.2798,1.2841,1.2846,1.286,1.2921,1.2933,1.2962,1.2919,1.3078,1.3082,1.3085,1.31,1.3106,1.3111,0,0,0,0,0,1.2607,1.2653,1.2652,1.2666,1.2738,1.2792,1.2801,1.2816,1.2801,1.2825,1.2847,1.2845,1.2951,1.2927,1.2941,1.2971,1.3076,1.3081,1.3085,1.3098,1.3105,1.3111,0,0,0,0,0,0,1.2613,1.2658,1.2658,1.2719,1.2752,1.2792,1.2822,1.2823,1.2861,1.2858,1.2875,1.2885,1.2942,1.2962,1.2935,1.3033,1.3012,1.3019,1.3017,1.3024,1.303,1.3024,1.2923,0,0,0,0,0,1.2622,1.2661,1.2698,1.2748,1.2765,1.2791,1.2814,1.2823,1.2858,1.2872,1.2898,1.2932,1.2973,1.3,1.304,1.3103,1.3113,1.3131,1.3136,1.3141,1.3146,1.3183,1.3191,1.31,1.31,1.31,0,0,1.264,1.2669,1.2693,1.275,1.2777,1.2818,1.2802,1.2846,1.2877,1.2878,1.2934,1.2955,1.2994,1.3055,1.3083,1.3074,1.3174,1.3146,1.3149,1.3153,1.3188,1.3197,1.3204,1.3103,1.3103,1.3102,0,0,1.2693,1.2719,1.2764,1.2791,1.2831,1.2849,1.2859,1.29,1.2914,1.297,1.2973,1.301,1.308,1.3109,1.3132,1.3199,1.3198,1.3211,1.324,1.3275,1.3282,1.3289,1.3313,1.3322,1.3217,1.3217,1.3217,0,1.271,1.2772,1.2787,1.2832,1.2857,1.2861,1.2907,1.2933,1.2984,1.3002,1.2991,1.308,1.3107,1.3175,1.3192,1.321,1.3224,1.3206,1.328,1.3287,1.3293,1.3316,1.3325,1.3218,1.3218,1.3218,1.3218,0,1.2791,1.2834,1.2866,1.2916,1.2945,1.299,1.3013,1.3041,1.3048,1.3067,1.3125,1.3157,1.3204,1.3221,1.3228,1.3291,1.3284,1.3276,1.3255,1.3303,1.3325,1.3334,1.322,1.322,1.3219,1.3219,0,0,1.285,1.2909,1.292,1.2943,1.2989,1.3023,1.3069,1.3115,1.3139,1.3175,1.3215,1.3275,1.3269,1.3296,1.3306,1.3337,1.3389,1.3325,1.3327,1.3336,1.3461,1.3467,1.3477,1.3389,1.3391,1.3392,1.3458,0,1.2909,1.299,1.3006,1.3077,1.3117,1.3123,1.3163,1.3196,1.3215,1.3253,1.3274,1.3317,1.3305,1.3321,1.3352,1.3376,1.3414,1.3371,1.3427,1.3428,1.3416,1.3489,1.3495,1.3555,1.3467,1.3469,1.347,0,1.2988,1.3026,1.3101,1.3143,1.316,1.3196,1.3241,1.3276,1.3314,1.3326,1.3357,1.3364,1.3414,1.3391,1.346,1.343,1.3454,1.3469,1.3472,1.3478,1.3452,1.3497,1.3575,1.3584,1.3484,1.3482,1.3481,0,1.3024,1.3094,1.3149,1.3168,1.3218,1.3243,1.3265,1.3302,1.3329,1.3368,1.3386,1.343,1.3455,1.3489,1.3509,1.349,1.3576,1.3555,1.3588,1.3588,1.3606,1.3604,1.3689,1.3621,1.3621,1.362,1.362,0,1.3088,1.3134,1.3166,1.3199,1.3251,1.3269,1.3321,1.3343,1.3375,1.3414,1.3421,1.3457,1.348,1.352,1.3536,1.3591,1.3602,1.3613,1.3617,1.3613,1.3611,1.3628,1.3625,1.3623,1.3622,1.3622,1.3621,0,1.3137,1.316,1.3219,1.3262,1.3274,1.3311,1.3347,1.3381,1.34,1.3449,1.3462,1.3493,1.354,1.3563,1.3622,1.3632,1.3695,1.3695,1.3682,1.3683,1.3715,1.3712,1.3814,1.3829,1.375,1.3751,1.3752,0,1.3176,1.3212,1.3258,1.3285,1.3307,1.3349,1.3378,1.3398,1.3427,1.3474,1.3502,1.3549,1.3588,1.3664,1.3692,1.3738,1.374,1.3772,1.3746,1.3742,1.3741,1.3738,1.3743,1.3777,1.3778,1.3778,1.3779,0,1.3244,1.3254,1.3294,1.3338,1.3372,1.3408,1.3443,1.3465,1.3491,1.3523,1.3572,1.3602,1.3663,1.371,1.3758,1.3781,1.3785,1.3787,1.3797,1.3793,1.3784,1.379,1.3695,1.3784,1.3784,1.3783,1.3783,1.3783,1.329,1.3322,1.336,1.3405,1.3434,1.3467,1.3501,1.3525,1.3566,1.3617,1.3626,1.3678,1.3717,1.3781,1.3807,1.3848,1.3841,1.3855,1.3859,1.3862,1.3864,1.3777,1.3857,1.3857,1.3856,1.3856,1.3856,0,1.3358,1.3383,1.3424,1.3474,1.351,1.351,1.355,1.358,1.3625,1.3661,1.37,1.3756,1.3803,1.3835,1.3883,1.391,1.3913,1.3922,1.392,1.3926,1.3868,1.3854,1.3919,1.3919,1.3919,1.3919,1.3919,1.3919,1.3398,1.3453,1.3468,1.3538,1.3563,1.3614,1.3637,1.3668,1.3697,1.3759,1.3798,1.3819,1.3854,1.3904,1.3948,1.3956,1.3974,1.3983,1.3991,1.3936,1.393,1.3923,1.3911,1.3986,1.3986,1.4046,1.4046,1.4047]}]]